TimeMDT,TemperatureF,Dew PointF,Humidity,Sea Level PressureIn,VisibilityMPH,Wind Direction,Wind SpeedMPH,Gust SpeedMPH,PrecipitationIn,Events,Conditions,WindDirDegrees,DateUTC
12:53 AM,46.0,32.0,58,30.14,10.0,Calm,Calm,-,N/A,,Clear,0,2012-10-12 06:53:00
1:53 AM,44.6,30.2,57,30.28,10.0,Calm,Calm,-,N/A,,Clear,0,2012-10-12 07:53:00
2:53 AM,39.9,28.9,65,30.14,10.0,East,4.6,-,N/A,,Clear,100,2012-10-12 08:53:00
3:53 AM,39.0,28.9,67,30.12,10.0,East,4.6,-,N/A,,Clear,100,2012-10-12 09:53:00
4:53 AM,37.0,28.9,73,30.13,10.0,NE,4.6,-,N/A,,Clear,50,2012-10-12 10:53:00
5:53 AM,37.0,28.9,73,30.15,10.0,East,6.9,-,N/A,,Clear,100,2012-10-12 11:53:00
6:53 AM,35.1,28.0,76,30.16,10.0,East,5.8,-,N/A,,Clear,80,2012-10-12 12:53:00
7:53 AM,39.2,30.2,70,30.21,10.0,NE,4.6,-,N/A,,Clear,50,2012-10-12 13:53:00
8:53 AM,41.0,30.9,67,30.16,10.0,Calm,Calm,-,N/A,,Clear,0,2012-10-12 14:53:00
9:53 AM,43.0,32.0,65,30.13,10.0,SE,4.6,-,N/A,,Clear,130,2012-10-12 15:53:00
10:53 AM,45.0,32.0,60,30.15,10.0,SSE,3.5,-,N/A,,Clear,150,2012-10-12 16:53:00
11:53 AM,46.0,32.0,58,30.14,10.0,Variable,3.5,-,N/A,,Mostly Cloudy,0,2012-10-12 17:53:00
12:53 PM,54.0,34.0,47,30.03,10.0,Variable,3.5,-,N/A,,Clear,0,2012-10-12 18:53:00
1:53 PM,57.9,34.0,41,29.95,10.0,SE,8.1,-,N/A,,Clear,130,2012-10-12 19:53:00
2:53 PM,61.0,35.1,38,29.89,10.0,SSE,5.8,-,N/A,,Partly Cloudy,150,2012-10-12 20:53:00
3:53 PM,62.6,35.6,37,29.96,10.0,SSE,6.9,-,N/A,,Scattered Clouds,160,2012-10-12 21:53:00
4:29 PM,62.6,37.4,39,30.01,8.0,West,24.2,31.1,N/A,Thunderstorm,Thunderstorm,280,2012-10-12 22:29:00
4:37 PM,55.4,44.6,67,30.02,1.8,West,5.8,31.1,0.02,Rain-Thunderstorm,Thunderstorms and Rain,270,2012-10-12 22:37:00
4:47 PM,53.6,46.4,77,30.02,1.8,West,5.8,-,0.06,Rain-Thunderstorm,Light Rain,270,2012-10-12 22:47:00
4:49 PM,53.6,46.4,77,30.02,3.0,West,5.8,-,0.06,Rain-Thunderstorm,Light Rain,270,2012-10-12 22:49:00
4:53 PM,54.0,46.9,77,29.96,6.0,Calm,Calm,-,0.07,Rain-Thunderstorm,Light Rain,0,2012-10-12 22:53:00
5:08 PM,53.6,48.2,82,29.95,10.0,NNE,10.4,-,0.00,Rain,Light Rain,30,2012-10-12 23:08:00
5:53 PM,54.0,48.9,83,29.90,10.0,ESE,9.2,-,0.00,,Clear,110,2012-10-12 23:53:00
6:53 PM,51.1,48.0,89,29.91,10.0,East,3.5,-,N/A,,Clear,80,2012-10-13 00:53:00
7:53 PM,52.0,46.9,83,29.89,10.0,North,6.9,-,N/A,,Overcast,360,2012-10-13 01:53:00
8:53 PM,50.0,46.0,86,29.90,10.0,Calm,Calm,-,N/A,,Clear,0,2012-10-13 02:53:00
9:53 PM,46.9,45.0,93,29.92,10.0,Calm,Calm,-,N/A,,Partly Cloudy,0,2012-10-13 03:53:00
10:53 PM,46.0,44.1,93,29.89,10.0,WNW,10.4,-,N/A,,Clear,300,2012-10-13 04:53:00
11:53 PM,48.0,44.1,86,29.87,10.0,West,3.5,-,N/A,,Clear,270,2012-10-13 05:53:00